When you browse on this site, cookies collect data to enhance your experience and personalize the content and advertising you see.
Visit our Privacy Policy to learn more. By continuing to use the site, you agree to this use of cookies and data.
  • Em Portugal
  • Lista de países
  • Para 7 dias
  • Temperatura da água
  • Mapa do tempo
  • Widgets de tempo
  • user-avatar
    Iniciar Sessão

    Previsão horária em Kurgan-Tyube

    Hoje, 10 Abril, Sexta-feira

    Tempo Temperatura Precipitação Vento Pressão Humidade
    00:00 +6°C° 0 mm 1 m/s 736 mmHg 77%
    01:00 +6°C° 0 mm 1 m/s 735 mmHg 78%
    02:00 +4°C° 0 mm 2 m/s 734 mmHg 79%
    03:00 +5°C° 0 mm 1 m/s 734 mmHg 79%
    04:00 +5°C° 0 mm 1 m/s 733 mmHg 80%
    05:00 +5°C° 0 mm 1 m/s 732 mmHg 79%
    06:00 +6°C° 0 mm 1 m/s 732 mmHg 75%
    07:00 +7°C° 0 mm 1 m/s 732 mmHg 71%
    08:00 +8°C° 0 mm 1 m/s 732 mmHg 67%
    09:00 +10°C° 0 mm 1 m/s 732 mmHg 61%
    10:00 +12°C° 0 mm 1 m/s 732 mmHg 54%
    11:00 +14°C° 0 mm 1 m/s 732 mmHg 50%
    12:00 +16°C° 0 mm 1 m/s 732 mmHg 46%
    13:00 +18°C° 0 mm 2 m/s 731 mmHg 42%
    14:00 +19°C° 0 mm 2 m/s 731 mmHg 37%
    15:00 +20°C° 0 mm 2 m/s 731 mmHg 39%
    16:00 +20°C° 0 mm 2 m/s 731 mmHg 40%
    17:00 +20°C° 0 mm 2 m/s 730 mmHg 41%
    18:00 +20°C° 0 mm 2 m/s 731 mmHg 44%
    19:00 +19°C° 0 mm 2 m/s 731 mmHg 46%
    20:00 +18°C° 0 mm 2 m/s 731 mmHg 49%
    21:00 +18°C° 0 mm 2 m/s 732 mmHg 52%
    22:00 +17°C° 0 mm 3 m/s 732 mmHg 55%
    23:00 +17°C° 0 mm 3 m/s 732 mmHg 58%

    Amanhã, 11 Abril, Sábado

    Tempo Temperatura Precipitação Vento Pressão Humidade
    00:00 +17°C° 0 mm 3 m/s 732 mmHg 60%
    01:00 +16°C° 0 mm 3 m/s 731 mmHg 62%
    02:00 +16°C° 0 mm 3 m/s 731 mmHg 63%
    03:00 +16°C° 0 mm 3 m/s 731 mmHg 64%
    04:00 +16°C° 0 mm 3 m/s 731 mmHg 64%
    05:00 +16°C° 0 mm 3 m/s 731 mmHg 64%
    06:00 +16°C° 0 mm 3 m/s 731 mmHg 62%
    07:00 +17°C° 0 mm 2 m/s 731 mmHg 61%
    08:00 +18°C° 0 mm 2 m/s 731 mmHg 59%
    09:00 +19°C° 0 mm 2 m/s 731 mmHg 55%
    10:00 +20°C° 0 mm 2 m/s 731 mmHg 51%
    11:00 +23°C° 0 mm 2 m/s 731 mmHg 47%
    12:00 +24°C° 0 mm 2 m/s 731 mmHg 46%
    13:00 +25°C° 0 mm 2 m/s 731 mmHg 44%
    14:00 +26°C° 0 mm 2 m/s 730 mmHg 42%
    15:00 +26°C° 0 mm 2 m/s 731 mmHg 43%
    16:00 +26°C° 0 mm 1 m/s 731 mmHg 44%
    17:00 +27°C° 0 mm 1 m/s 731 mmHg 45%
    18:00 +26°C° 0 mm 1 m/s 731 mmHg 48%
    19:00 +24°C° 0 mm 2 m/s 732 mmHg 51%
    20:00 +23°C° 0 mm 2 m/s 733 mmHg 55%
    21:00 +23°C° 0 mm 2 m/s 733 mmHg 57%
    22:00 +22°C° 0 mm 1 m/s 733 mmHg 60%
    23:00 +22°C° 0 mm 1 m/s 732 mmHg 62%

    Depois de amanhã, 12 Abril, Domingo

    Tempo Temperatura Precipitação Vento Pressão Humidade
    00:00 +20°C° 0 mm 2 m/s 732 mmHg 64%
    01:00 +20°C° 0 mm 2 m/s 731 mmHg 66%
    02:00 +19°C° 0 mm 3 m/s 731 mmHg 68%
    03:00 +19°C° 0 mm 3 m/s 731 mmHg 69%
    04:00 +19°C° 0 mm 3 m/s 730 mmHg 69%
    05:00 +18°C° 0 mm 3 m/s 730 mmHg 69%
    06:00 +19°C° 0 mm 3 m/s 730 mmHg 67%
    07:00 +20°C° 0 mm 3 m/s 730 mmHg 65%
    08:00 +21°C° 0 mm 2 m/s 730 mmHg 62%
    09:00 +23°C° 0 mm 2 m/s 730 mmHg 56%
    10:00 +25°C° 0 mm 2 m/s 730 mmHg 50%
    11:00 +27°C° 0 mm 1 m/s 730 mmHg 44%
    12:00 +28°C° 0 mm 1 m/s 730 mmHg 41%
    13:00 +29°C° 0 mm 1 m/s 730 mmHg 38%
    14:00 +30°C° 0 mm 1 m/s 730 mmHg 35%
    15:00 +30°C° 0 mm 2 m/s 730 mmHg 37%
    16:00 +30°C° 0 mm 2 m/s 729 mmHg 38%
    17:00 +30°C° 0 mm 2 m/s 729 mmHg 39%
    18:00 +28°C° 0 mm 3 m/s 730 mmHg 44%
    19:00 +27°C° 0 mm 3 m/s 730 mmHg 48%
    20:00 +25°C° 0 mm 4 m/s 730 mmHg 53%
    21:00 +24°C° 0.3 mm 3 m/s 730 mmHg 60%
    22:00 +22°C° 0.3 mm 3 m/s 730 mmHg 67%
    23:00 +20°C° 0.3 mm 2 m/s 731 mmHg 74%

    13 Abril, Segunda-feira

    Tempo Temperatura Precipitação Vento Pressão Humidade
    00:00 +20°C° 0 mm 2 m/s 731 mmHg 75%
    01:00 +20°C° 0 mm 2 m/s 731 mmHg 77%
    02:00 +21°C° 0 mm 1 m/s 730 mmHg 78%
    03:00 +21°C° 0.1 mm 1 m/s 730 mmHg 79%
    04:00 +20°C° 0.1 mm 1 m/s 730 mmHg 80%
    05:00 +20°C° 0.1 mm 1 m/s 730 mmHg 82%
    06:00 +20°C° 1 mm 1 m/s 731 mmHg 83%
    07:00 +20°C° 1 mm 1 m/s 731 mmHg 85%
    08:00 +20°C° 1 mm 1 m/s 731 mmHg 86%
    09:00 +21°C° 0.1 mm 1 m/s 731 mmHg 82%
    10:00 +22°C° 0.1 mm 1 m/s 731 mmHg 77%
    11:00 +23°C° 0.1 mm 1 m/s 731 mmHg 72%
    12:00 +23°C° 0.6 mm 2 m/s 731 mmHg 73%
    13:00 +21°C° 0.6 mm 2 m/s 731 mmHg 74%
    14:00 +21°C° 0.6 mm 3 m/s 731 mmHg 75%
    15:00 +21°C° 0.9 mm 3 m/s 731 mmHg 75%
    16:00 +21°C° 0.9 mm 4 m/s 731 mmHg 76%
    17:00 +20°C° 0.9 mm 4 m/s 731 mmHg 76%
    18:00 +19°C° 0.1 mm 3 m/s 732 mmHg 78%
    19:00 +19°C° 0.1 mm 3 m/s 732 mmHg 80%
    20:00 +18°C° 0.1 mm 2 m/s 732 mmHg 82%
    21:00 +18°C° 0 mm 2 m/s 732 mmHg 83%
    22:00 +17°C° 0 mm 2 m/s 732 mmHg 84%
    23:00 +17°C° 0 mm 2 m/s 732 mmHg 86%

    14 Abril, Terça-feira

    Tempo Temperatura Precipitação Vento Pressão Humidade
    00:00 +18°C° 0 mm 1 m/s 732 mmHg 86%
    01:00 +16°C° 0 mm 1 m/s 731 mmHg 87%
    02:00 +16°C° 0 mm 1 m/s 731 mmHg 87%
    03:00 +16°C° 0.7 mm 1 m/s 730 mmHg 89%
    04:00 +16°C° 0.7 mm 1 m/s 729 mmHg 91%
    05:00 +15°C° 0.7 mm 0 m/s 729 mmHg 93%
    06:00 +16°C° 1 mm 1 m/s 728 mmHg 93%
    07:00 +16°C° 1 mm 1 m/s 728 mmHg 93%
    08:00 +16°C° 1 mm 1 m/s 727 mmHg 93%
    09:00 +16°C° 1.6 mm 2 m/s 727 mmHg 93%
    10:00 +16°C° 1.6 mm 2 m/s 727 mmHg 94%
    11:00 +16°C° 1.6 mm 3 m/s 727 mmHg 94%
    12:00 +16°C° 2 mm 3 m/s 728 mmHg 93%
    13:00 +16°C° 2 mm 3 m/s 728 mmHg 92%
    14:00 +16°C° 2 mm 3 m/s 729 mmHg 91%
    15:00 +16°C° 1.9 mm 3 m/s 729 mmHg 91%
    16:00 +16°C° 1.9 mm 3 m/s 729 mmHg 92%
    17:00 +14°C° 1.9 mm 3 m/s 730 mmHg 92%
    18:00 +14°C° 0.2 mm 3 m/s 730 mmHg 91%
    19:00 +14°C° 0.2 mm 3 m/s 731 mmHg 90%
    20:00 +15°C° 0.2 mm 2 m/s 732 mmHg 89%
    21:00 +15°C° 0 mm 2 m/s 732 mmHg 89%
    22:00 +15°C° 0 mm 2 m/s 732 mmHg 89%
    23:00 +14°C° 0 mm 2 m/s 733 mmHg 89%

    15 Abril, Quarta-feira

    Tempo Temperatura Precipitação Vento Pressão Humidade
    00:00 +14°C° 0 mm 2 m/s 733 mmHg 89%
    01:00 +14°C° 0 mm 2 m/s 733 mmHg 90%
    02:00 +14°C° 0 mm 2 m/s 733 mmHg 91%
    03:00 +14°C° 0 mm 1 m/s 733 mmHg 91%
    04:00 +13°C° 0 mm 1 m/s 732 mmHg 91%
    05:00 +12°C° 0 mm 0 m/s 732 mmHg 92%
    06:00 +13°C° 0 mm 0 m/s 733 mmHg 88%
    07:00 +13°C° 0 mm 0 m/s 733 mmHg 85%
    08:00 +14°C° 0 mm 0 m/s 734 mmHg 82%
    09:00 +14°C° 0 mm 0 m/s 734 mmHg 79%
    10:00 +16°C° 0 mm 1 m/s 734 mmHg 76%
    11:00 +16°C° 0 mm 1 m/s 734 mmHg 73%
    12:00 +18°C° 0 mm 1 m/s 734 mmHg 68%
    13:00 +19°C° 0 mm 1 m/s 734 mmHg 63%
    14:00 +20°C° 0 mm 1 m/s 733 mmHg 58%
    15:00 +21°C° 0 mm 1 m/s 733 mmHg 56%
    16:00 +21°C° 0 mm 1 m/s 733 mmHg 54%
    17:00 +22°C° 0 mm 1 m/s 732 mmHg 52%
    18:00 +20°C° 0 mm 1 m/s 732 mmHg 58%
    19:00 +19°C° 0 mm 1 m/s 732 mmHg 64%
    20:00 +18°C° 0 mm 1 m/s 733 mmHg 70%
    21:00 +18°C° 0 mm 1 m/s 733 mmHg 71%
    22:00 +16°C° 0 mm 1 m/s 733 mmHg 71%
    23:00 +16°C° 0 mm 1 m/s 733 mmHg 72%
    Mostrar mais